Location: Calmejanne
(44.7523°N, 1.9418°E)
Time: 08:22:02
(UTC+00:00)

Gbstr 26 Del rocket - Pass Details

Date: 14 May 2026
Orbit: 490 x 1215 km, 51.8° (Epoch: 6 June)

Event Time Altitude Azimuth Distance (km) Brightness Sun altitude
Rises 20:37:35 0° 297° (WNW) 3,289 8.3 -13.0°
Reaches altitude 10° 20:40:29 10° 287° (WNW) 2,223 6.9 -13.4°
Maximum altitude 20:44:49 29° 228° (SW) 1,168 4.5 -13.9°
Enters shadow 20:47:31 16° 176° (S) 1,571 4.7 -14.3°
